Regional Weather Roundup
Issued by NWS

Home | Current Version | Previous Version | Text Only | Print | Product List | Glossary Off
Versions: 1 2 3 4 5 6 7 8 9 10 11 12 13 14 15 16 17 18 19 20 21 22 23 24 25 26 27 28 29 30 31 32 33 34 35 36 37 38 39 40 41 42 43 44 45 46 47 48 49 50

000
ASUS43 KIND 261109
RWRIN

WEATHER ROUNDUP FOR INDIANA
NATIONAL WEATHER SERVICE INDIANAPOLIS IN
700 AM EDT FRI AUG 26 2016

NOTE: "FAIR" INDICATES FEW OR NO CLOUDS BELOW 12,000 FEET WITH NO
SIGNIFICANT WEATHER AND/OR OBSTRUCTIONS TO VISIBILITY.

* - STATION DOES NOT REPORT WEATHER SUCH AS PRECIPITATION OR FOG.

+ - STATION NOT QUALITY CONTROLLED BY THE NATIONAL WEATHER SERVICE.
    USE DATA WITH CAUTION...ESPECIALLY DEWPOINT AND RELATIVE
    HUMIDITY OBSERVATIONS.

INZ001>003-010>013-019-020-261200-
NORTHWEST INDIANA

CITY           SKY/WX    TMP DP  RH WIND       PRES   REMARKS
GARY /AIRPORT/ MOCLDY    66  66 100 N3        30.13R
KNOX *+        FAIR      63  55  77 CALM      30.12R
LA PORTE +     FAIR     N/A N/A N/A CALM      30.14R
MICHIGAN CITY+ FAIR      63  63 100 CALM      30.13S FOG
MONTICELLO +   CLOUDY    69  65  88 CALM      30.12R FOG
RENSSELAER +   LGT RAIN  68  68 100 CALM      30.12S
VALPARAISO     FAIR      69  65  86 CALM      30.13R

$$

LMZ046-743>745-261200-
SOUTHERN LAKE MICHIGAN

STATION/POSITION TIME  TEMP    WIND        PRES    WAVE
                       AIR SEA DIR/SP/G            HT
                 (UTC) (F)     (DEG/KT/KT) (MB)    (FT)
BURNS HARBOR     1004   73      10/  6/  9 1020.3R
MICHIGAN CITY    1000   73     340/  8/  9   N/A
5NW MICH CITY    1000   74 74  360/  6/  8   N/A     1

$$

INZ004-005-014>016-021>024-261200-
NORTH CENTRAL INDIANA

CITY           SKY/WX    TMP DP  RH WIND       PRES   REMARKS
ELKHART        FAIR      64  64 100 CALM      30.13
GOSHEN         FOG       63  61  93 E3        30.12S VSB 1/4
LOGANSPORT +   FOG       68  68 100 CALM      30.14R VSB<1/4
PERU/GRISSOM   FOG       70  70 100 NE3       30.12R VSB 1/2
ROCHESTER +    FAIR      70  70 100 CALM      30.14R FOG
SOUTH BEND     FAIR      64  64 100 CALM      30.13R
WARSAW +       FAIR      64  64 100 CALM      30.12S FOG

$$

INZ006>009-017-018-025>027-261200-
NORTHEAST INDIANA

CITY           SKY/WX    TMP DP  RH WIND       PRES   REMARKS
ANGOLA *+      CLOUDY    61  52  72 CALM      30.14R VSB 1/4
AUBURN +       FOG       64  63  94 CALM      30.13S VSB 1/2
FORT WAYNE     FAIR      67  65  93 CALM      30.12F FOG
HUNTINGTON +   FOG      N/A N/A N/A CALM      30.13R VSB<1/4

$$

INZ028-029-035-036-043>045-051>053-261200-
WEST CENTRAL INDIANA

CITY           SKY/WX    TMP DP  RH WIND       PRES   REMARKS
CRAWFORDSVL +  MOCLDY    69  69 100 E5        30.10S THUNDER
GREENCASTLE +  MOCLDY    72  72 100 CALM      30.12R
LAFAYETTE      TSTM      71  70  96 NW9       30.14R FOG
TERRE HAUTE    MOCLDY    72  70  93 CALM      30.10R

$$

INZ030>032-037>040-046>048-054>057-064-065-261200-
CENTRAL INDIANA

CITY           SKY/WX    TMP DP  RH WIND       PRES   REMARKS
COLUMBUS       CLEAR     72  72 100 W5        30.11  FOG
INDIANAPOLIS   MOCLDY    75  72  90 NE3       30.11R
-EAGLE CREEK   MOCLDY    74  72  93 CALM      30.11R
MARION +       FAIR      67  67 100 CALM      30.14R FOG
MT COMFORT *+  MOCLDY    70  68  94 CALM      30.12R
SHELBYVILLE    FOG       71  69  93 SE5       30.11R VSB 1/4
ZIONSVILLE +   FAIR      68  67  99 CALM      30.13R FOG

$$

INZ033-034-041-042-049-050-058-059-261200-
EAST CENTRAL INDIANA

CITY           SKY/WX    TMP DP  RH WIND       PRES   REMARKS
MUNCIE         FAIR      70  68  93 NE3       30.12R

$$

INZ060-061-067>069-081>083-085>088-261200-
SOUTHWEST INDIANA

CITY           SKY/WX    TMP DP  RH WIND       PRES   REMARKS
EVANSVILLE     FAIR      72  70  93 CALM      30.10R
HUNTINGBURG *+ FAIR      72  66  83 CALM      30.11R
WASHINGTON +   FAIR      71  71 100 MISG      30.10R

$$

INZ062-063-066-070>080-084-089>092-261200-
SOUTH CENTRAL AND SOUTHEAST INDIANA

CITY           SKY/WX    TMP DP  RH WIND       PRES   REMARKS
BLOOMINGTON    FAIR      70  68  93 CALM      30.11R FOG
MADISON *+     FAIR      70  68  94 CALM      30.14R

$$





USA.gov is the U.S. government's official web portal to all federal, state and local government web resources and services.